Weather History for Marianna, FL

Change the Weather History Date:

Sunday, May 19, 2013

  Actual Average Record
Temperature  
Mean Temperature 78 °F 76 °F  
Max Temperature 90 °F 87 °F 96 °F (1998)
Min Temperature 65 °F 65 °F 54 °F (2011)
Degree Days  
Heating Degree Days 0    
Month to date heating degree days 21  
Since 1 July heating degree days 1377  
Cooling Degree Days 13    
Month to date cooling degree days 89  
Year to date cooling degree days 263  
Growing Degree Days 26 (Base 50)    
Moisture  
Dew Point 66 °F    
Average Humidity 72    
Maximum Humidity 100    
Minimum Humidity 43    
Precipitation  
Precipitation 0.00 in 0.09 in 0.64 in (2003)
Month to date precipitation 0.67 1.53  
Year to date precipitation 20.90 20.76  
Sea Level Pressure  
Sea Level Pressure 30.05 in    
Wind  
Wind Speed 3 mph (WSW)    
Max Wind Speed 12 mph    
Max Gust Speed 14 mph    
Visibility 8 miles    
Events Fog    
T = Trace of Precipitation, MM = Missing Value Source: NWS Daily Summary

Daily Weather History Graph

Daily Weather History Graph

Search for Another Location

Airport:

Trip Planner

Search our weather history database for the weather conditions in past years. The results will help you decide how hot, cold, wet, or windy it might be!

Date:

Astronomy

May. 19, 2013 Rise Set
Actual Time 5:43 AM CDT 7:31 PM CDT
Civil Twilight 5:16 AM CDT 7:58 PM CDT
Nautical Twilight 4:44 AM CDT 8:30 PM CDT
Astronomical Twilight 4:10 AM CDT 9:04 PM CDT
Moon 1:57 PM CDT (5/19) 1:42 AM CDT (5/19)
Length of Visible Light 14h 41m
Length of Day
13h 48m
Waxing Gibbous, 65% of the Moon is Illuminated
May 19
Waxing Gibbous
May 24
Full
May 31
Last Quarter
Jun 8
New
Jun 16
First Quarter

Hourly Weather History & Observations

Time (CDT) Temp. Heat Index Dew Point Humidity Pressure Visibility Wind Dir Wind Speed Gust Speed Precip Events Conditions
12:53 AM 70.0 °F - 66.0 °F 87% 30.05 in 10.0 mi Calm Calm - N/A   Partly Cloudy
1:53 AM 70.0 °F - 66.0 °F 87% 30.04 in 10.0 mi Calm Calm - N/A   Clear
2:53 AM 66.9 °F - 64.9 °F 93% 30.02 in 10.0 mi Calm Calm - N/A   Clear
3:53 AM 64.9 °F - 64.0 °F 97% 30.02 in 9.0 mi Calm Calm - N/A   Clear
4:09 AM 64.4 °F - 64.4 °F 100% 30.03 in 8.0 mi Calm Calm - N/A   Scattered Clouds
4:18 AM 66.2 °F - 64.4 °F 94% 30.04 in 9.0 mi Calm Calm - N/A   Mostly Cloudy
5:04 AM 66.2 °F - 66.2 °F 100% 30.05 in 0.5 mi Calm Calm - N/A Fog Fog
5:53 AM 66.9 °F - 66.0 °F 97% 30.06 in 0.2 mi Calm Calm - N/A Fog Fog
7:42 AM 68.0 °F - 66.2 °F 94% 30.10 in 1.2 mi Calm Calm - N/A   Overcast
7:53 AM 68.0 °F - 66.9 °F 96% 30.10 in 2.5 mi Calm Calm - N/A   Overcast
8:00 AM 68.0 °F - 66.2 °F 94% 30.10 in 3.0 mi Calm Calm - N/A   Overcast
8:50 AM 71.6 °F - 66.2 °F 83% 30.10 in 10.0 mi Calm Calm - N/A   Overcast
8:53 AM 72.0 °F - 66.0 °F 81% 30.10 in 10.0 mi Calm Calm - N/A   Overcast
9:13 AM 73.4 °F - 66.2 °F 78% 30.10 in 10.0 mi Variable 3.5 mph - N/A   Scattered Clouds
9:53 AM 77.0 °F - 66.0 °F 69% 30.09 in 10.0 mi Calm Calm - N/A   Clear
10:53 AM 81.0 °F 82.7 °F 64.9 °F 58% 30.07 in 10.0 mi South 5.8 mph - N/A   Clear
11:53 AM 84.0 °F 85.4 °F 64.0 °F 51% 30.06 in 10.0 mi Variable 5.8 mph - N/A   Clear
12:53 PM 86.0 °F 87.3 °F 64.0 °F 48% 30.03 in 10.0 mi SSE 5.8 mph - N/A   Clear
3:53 PM 87.1 °F 87.8 °F 63.0 °F 44% 30.00 in 10.0 mi Calm Calm - N/A   Scattered Clouds
4:53 PM 89.1 °F 90.3 °F 64.0 °F 43% 30.00 in 10.0 mi WNW 5.8 mph - N/A   Clear
5:53 PM 86.0 °F 87.6 °F 64.9 °F 49% 29.99 in 10.0 mi West 4.6 mph - N/A   Scattered Clouds
6:53 PM 82.9 °F 85.8 °F 68.0 °F 60% 29.98 in 10.0 mi WSW 5.8 mph - N/A   Clear
7:53 PM 80.1 °F 82.7 °F 68.0 °F 67% 30.00 in 10.0 mi WSW 6.9 mph - N/A   Partly Cloudy
8:53 PM 78.1 °F - 66.0 °F 66% 30.04 in 10.0 mi West 5.8 mph - N/A   Partly Cloudy
9:53 PM 77.0 °F - 66.0 °F 69% 30.07 in 10.0 mi Calm Calm - N/A   Partly Cloudy
11:53 PM 72.0 °F - 66.0 °F 81% 30.07 in 10.0 mi NW 3.5 mph - N/A   Clear